Hauptseite
METAR-TAF:

METAR-TAF

Flughäfen :

Fliegerhorst Holzdorf

Holzdorf, Deutschland

Breite: 51-46N, Länge: 013-11E, Höhe: 79 m

Beobachtung

Neuester Wetterbericht von vor 30 Minuten, um 03:20 UTC
Wind 9 kt aus Nordost
Temperatur 4°C
Luftfeuchtigkeit 87%
Luftdruck 1021 hPa
Sichtweite 10 km oder mehr
Durchbrochene Bewölkung in der Höhe von 1000 ft
Durchbrochene Bewölkung in der Höhe von 1300 ft

METAR: ETSH 190320Z 04009KT 9999 BKN010 BKN013 04/02 Q1021 GRN

Zeit: 04:50 (03:50 UTC)


TAF: fehlend

Wetterbeobachtungen und Prognosen von mehr als 4000 Flughäfen (METAR und TAF Bericht).

Die verfügbaren Stationen werden durch gelbe und rote Markierungen auf der Karte dargestellt.

Führen Sie die Maus auf sie, um den Namen der Station zu sehen.

Darauf klicken, um die Beobachtung von Wetterbeobachtungen und Prognosen zu sehen.

Um die Karte zu ändern : klicken Sie auf den grünen Tasten mit einem schwarzen Kreuz Zum Vergrößern, auf den grünen Button mit einem Gedankenstrich zu verkleinern, oder auf die grünen Pfeile für benachbarte Karten.


METAR-TAF: